Dewpoint
52 53 53 52 53 53 53 51 53 53 53 53 53 52 52 52 54 52 53 51 51 51 51 50 51 51 53 52 52 52 53 53 51 50 50 51 49 49 49 48 48 50
53 54 54 53 54 54 54 52 54 53 54 53 53 53 52 52 53 54 54 52 52 51 51 51 51 51 51 51 51 51 51 49 48 52 49 49 49 50 47 48 48 49
53 53 53 53 53 52 54 54 53 53 55 54 54 53 52 51 53 54 53 52 52 51 51 51 49 51 51 50 51 51 50 49 50 51 51 51 50 49 49 48 48 48
53 52 52 53 54 52 53 55 53 52 55 55 53 53 52 52 52 54 53 56 52 51 51 51 50 51 50 50 52 50 51 51 51 50 50 50 51 49 47 48 49 48
54 53 53 52 55 53 52 54 53 53 52 55 55 54 52 51 52 54 54 53 53 51 52 51 51 50 50 49 51 50 51 50 50 50 49 47 48 48 49 49 47 46
57 55 54 53 56 53 52 53 54 53 52 54 55 54 52 51 52 53 53 53 53 52 52 52 51 51 50 48 50 48 50 48 48 50 50 48 45 47 49 48 46 45
56 56 56 55 54 55 56 55 55 55 55 53 55 54 53 52 51 53 53 52 53 53 52 52 51 51 50 48 49 48 49 49 48 49 48 47 46 46 47 46 47 48
57 57 57 56 55 55 54 54 55 57 56 55 54 54 54 53 51 53 53 53 52 53 53 52 51 51 50 50 48 49 47 51 48 48 48 47 46 45 44 49 45 45
57 56 55 54 54 54 54 54 55 55 56 56 54 54 54 55 53 53 53 53 52 52 52 52 51 51 50 50 49 50 47 49 49 47 48 47 46 45 46 46 43 45
55 56 55 55 55 56 55 55 55 56 56 56 57 55 54 54 54 54 54 53 52 51 51 52 52 51 50 50 50 50 49 50 49 47 48 49 46 46 46 46 45 46
56 56 56 55 54 55 54 55 55 55 56 55 55 56 55 55 55 55 53 53 53 52 51 52 52 51 50 50 50 50 50 50 48 47 48 49 46 47 49 46 46 46
56 57 57 57 57 56 55 54 54 55 54 54 56 56 56 56 55 55 55 54 53 53 52 52 52 51 51 50 49 49 50 49 48 47 47 48 47 47 47 46 46 47
55 56 56 56 56 57 57 56 55 54 54 54 54 55 54 54 55 55 55 55 55 54 53 52 54 54 55 54 53 50 50 49 48 47 47 47 47 47 47 46 47 45
54 54 54 55 57 58 57 56 55 54 54 53 54 54 54 53 54 54 53 54 54 53 53 54 55 54 54 54 54 52 50 49 48 47 47 47 47 47 45 44 45 45
50 51 51 53 55 56 56 56 56 56 55 54 54 55 54 54 54 54 53 54 54 54 54 54 55 55 55 55 54 54 52 49 49 47 47 47 47 46 45 45 44 44
47 45 44 48 51 53 55 55 55 55 56 56 56 56 55 54 54 54 54 54 54 54 54 54 55 56 54 51 51 54 53 51 50 48 47 47 47 45 44 43 42 42
43 44 44 42 45 47 46 52 54 55 55 55 56 55 55 55 55 55 55 55 54 54 54 54 55 56 49 46 47 48 52 52 50 48 47 47 46 44 42 41 42 42
40 38 37 40 41 41 43 44 45 46 50 54 55 55 55 53 54 55 55 54 54 54 53 54 54 51 46 46 45 45 47 52 50 48 48 47 45 44 42 41 41 43
37 37 40 41 41 42 42 41 42 41 42 45 45 47 51 53 54 54 54 54 54 54 54 54 53 50 46 46 45 44 43 47 50 48 47 46 45 44 42 41 41 42
36 36 36 41 43 42 42 40 41 41 43 44 44 44 44 45 46 49 50 51 53 54 54 54 54 50 45 45 45 43 41 43 50 48 47 45 44 44 43 42 42 41
38 37 39 38 38 38 39 39 41 43 45 45 44 43 44 46 46 46 47 49 50 51 51 51 54 49 45 44 43 40 40 44 46 46 44 44 43 43 42 42 41 42
37 39 39 39 38 39 40 40 41 42 39 42 42 43 46 46 45 45 46 47 49 48 49 48 50 46 43 42 41 39 41 45 44 43 42 43 42 42 40 40 40 40
36 40 40 39 40 38 37 38 39 40 42 43 41 41 41 42 44 44 45 45 46 47 46 44 44 39 39 39 38 38 41 42 42 40 40 40 39 39 39 39 41 41
36 34 36 40 40 38 39 40 41 41 41 42 39 39 41 42 43 44 44 44 45 46 46 42 37 37 37 37 38 39 39 41 39 39 40 38 39 40 40 40 42 48
36 37 37 39 39 39 40 40 40 39 40 40 40 40 40 41 42 41 42 42 42 43 44 39 35 36 36 37 37 38 39 38 38 39 37 37 37 38 39 40 39 39
35 35 36 37 37 39 40 40 41 41 40 39 39 40 40 40 42 42 41 40 39 40 39 36 33 33 35 35 36 37 39 39 38 36 36 37 37 35 36 34 34 35